When you browse on this site, cookies collect data to enhance your experience and personalize the content and advertising you see.
Visit our Privacy Policy to learn more. By continuing to use the site, you agree to this use of cookies and data.

Stündliche Wetter Kerkira

Heute, 14 Juli, Dienstag

Zeit Temperatur Niederschläge Wind Luftdruck Luftfeuchtigkeit
00:00 +25°C° 0 mm 4 m/S 758 mmHg 69%
01:00 +24°C° 0 mm 3 m/S 758 mmHg 71%
02:00 +24°C° 0 mm 3 m/S 758 mmHg 70%
03:00 +24°C° 0 mm 2 m/S 758 mmHg 70%
04:00 +24°C° 0 mm 2 m/S 757 mmHg 69%
05:00 +25°C° 0 mm 2 m/S 758 mmHg 65%
06:00 +26°C° 0 mm 2 m/S 758 mmHg 61%
07:00 +27°C° 0 mm 2 m/S 758 mmHg 57%
08:00 +28°C° 0 mm 3 m/S 758 mmHg 56%
09:00 +29°C° 0 mm 3 m/S 758 mmHg 55%
10:00 +29°C° 0 mm 4 m/S 759 mmHg 54%
11:00 +30°C° 0 mm 3 m/S 759 mmHg 54%
12:00 +30°C° 0 mm 3 m/S 758 mmHg 54%
13:00 +30°C° 0 mm 3 m/S 758 mmHg 54%
14:00 +30°C° 0 mm 3 m/S 758 mmHg 56%
15:00 +29°C° 0 mm 2 m/S 758 mmHg 57%
16:00 +29°C° 0 mm 2 m/S 758 mmHg 59%
17:00 +28°C° 0 mm 2 m/S 758 mmHg 65%
18:00 +26°C° 0 mm 2 m/S 758 mmHg 71%
19:00 +25°C° 0 mm 1 m/S 758 mmHg 78%
20:00 +24°C° 0 mm 1 m/S 759 mmHg 80%
21:00 +24°C° 0 mm 1 m/S 759 mmHg 82%
22:00 +23°C° 0 mm 2 m/S 760 mmHg 85%
23:00 +23°C° 0 mm 2 m/S 760 mmHg 85%

Morgen, 15 Juli, Mittwoch

Zeit Temperatur Niederschläge Wind Luftdruck Luftfeuchtigkeit
00:00 +23°C° 0 mm 2 m/S 760 mmHg 85%
01:00 +21°C° 0 mm 2 m/S 760 mmHg 85%
02:00 +21°C° 0 mm 2 m/S 760 mmHg 84%
03:00 +21°C° 0 mm 2 m/S 760 mmHg 83%
04:00 +22°C° 0 mm 1 m/S 760 mmHg 83%
05:00 +23°C° 0 mm 1 m/S 760 mmHg 77%
06:00 +25°C° 0 mm 1 m/S 760 mmHg 70%
07:00 +26°C° 0 mm 1 m/S 761 mmHg 64%
08:00 +27°C° 0 mm 1 m/S 761 mmHg 61%
09:00 +28°C° 0 mm 2 m/S 761 mmHg 57%
10:00 +29°C° 0 mm 2 m/S 761 mmHg 54%
11:00 +29°C° 0 mm 2 m/S 761 mmHg 55%
12:00 +29°C° 0 mm 2 m/S 761 mmHg 56%
13:00 +29°C° 0 mm 2 m/S 760 mmHg 57%
14:00 +29°C° 0 mm 3 m/S 760 mmHg 59%
15:00 +28°C° 0 mm 3 m/S 760 mmHg 61%
16:00 +28°C° 0 mm 3 m/S 760 mmHg 63%
17:00 +27°C° 0 mm 2 m/S 760 mmHg 67%
18:00 +26°C° 0 mm 1 m/S 760 mmHg 71%
19:00 +23°C° 0 mm 0 m/S 760 mmHg 76%
20:00 +22°C° 0 mm 0 m/S 761 mmHg 78%
21:00 +22°C° 0 mm 0 m/S 761 mmHg 81%
22:00 +21°C° 0 mm 0 m/S 761 mmHg 84%
23:00 +23°C° 0 mm 1 m/S 761 mmHg 84%

übermorgen, 16 Juli, Donnerstag

Zeit Temperatur Niederschläge Wind Luftdruck Luftfeuchtigkeit
00:00 +23°C° 0 mm 1 m/S 761 mmHg 84%
01:00 +22°C° 0 mm 1 m/S 761 mmHg 84%
02:00 +22°C° 0 mm 1 m/S 760 mmHg 84%
03:00 +21°C° 0 mm 2 m/S 760 mmHg 84%
04:00 +21°C° 0 mm 2 m/S 760 mmHg 83%
05:00 +23°C° 0 mm 2 m/S 760 mmHg 77%
06:00 +25°C° 0 mm 1 m/S 760 mmHg 70%
07:00 +26°C° 0 mm 1 m/S 760 mmHg 64%
08:00 +27°C° 0.1 mm 1 m/S 759 mmHg 62%
09:00 +28°C° 0.1 mm 2 m/S 759 mmHg 59%
10:00 +28°C° 0.1 mm 2 m/S 759 mmHg 57%
11:00 +29°C° 0.1 mm 2 m/S 759 mmHg 56%
12:00 +29°C° 0.1 mm 2 m/S 759 mmHg 56%
13:00 +30°C° 0.1 mm 2 m/S 759 mmHg 55%
14:00 +29°C° 0.1 mm 2 m/S 758 mmHg 57%
15:00 +29°C° 0.1 mm 2 m/S 758 mmHg 58%
16:00 +28°C° 0.1 mm 2 m/S 758 mmHg 59%
17:00 +27°C° 0 mm 2 m/S 758 mmHg 64%
18:00 +26°C° 0 mm 2 m/S 758 mmHg 68%
19:00 +25°C° 0 mm 2 m/S 758 mmHg 73%
20:00 +25°C° 0 mm 2 m/S 758 mmHg 74%
21:00 +24°C° 0 mm 2 m/S 758 mmHg 76%
22:00 +24°C° 0 mm 2 m/S 758 mmHg 77%
23:00 +24°C° 0 mm 2 m/S 758 mmHg 77%

17 Juli, Freitag

Zeit Temperatur Niederschläge Wind Luftdruck Luftfeuchtigkeit
00:00 +23°C° 0 mm 2 m/S 758 mmHg 76%
01:00 +23°C° 0 mm 2 m/S 758 mmHg 75%
02:00 +23°C° 0 mm 2 m/S 757 mmHg 75%
03:00 +23°C° 0 mm 2 m/S 757 mmHg 75%
04:00 +23°C° 0 mm 2 m/S 757 mmHg 74%
05:00 +24°C° 0 mm 1 m/S 757 mmHg 69%
06:00 +26°C° 0 mm 1 m/S 757 mmHg 63%
07:00 +27°C° 0 mm 1 m/S 757 mmHg 57%
08:00 +29°C° 0 mm 1 m/S 757 mmHg 53%
09:00 +30°C° 0 mm 2 m/S 757 mmHg 49%
10:00 +31°C° 0 mm 2 m/S 757 mmHg 45%
11:00 +30°C° 0 mm 3 m/S 757 mmHg 47%
12:00 +30°C° 0 mm 3 m/S 757 mmHg 49%
13:00 +30°C° 0 mm 4 m/S 757 mmHg 51%
14:00 +30°C° 0 mm 4 m/S 756 mmHg 52%
15:00 +30°C° 0 mm 4 m/S 756 mmHg 53%
16:00 +30°C° 0 mm 4 m/S 756 mmHg 54%
17:00 +28°C° 0 mm 4 m/S 756 mmHg 60%
18:00 +27°C° 0 mm 3 m/S 756 mmHg 65%
19:00 +26°C° 0 mm 3 m/S 756 mmHg 71%
20:00 +26°C° 0 mm 3 m/S 757 mmHg 72%
21:00 +25°C° 0 mm 3 m/S 757 mmHg 74%
22:00 +25°C° 0 mm 3 m/S 757 mmHg 75%
23:00 +24°C° 0 mm 3 m/S 757 mmHg 76%

18 Juli, Samstag

Zeit Temperatur Niederschläge Wind Luftdruck Luftfeuchtigkeit
00:00 +24°C° 0 mm 3 m/S 757 mmHg 76%
01:00 +24°C° 0 mm 2 m/S 757 mmHg 76%
02:00 +24°C° 0 mm 2 m/S 757 mmHg 76%
03:00 +24°C° 0 mm 2 m/S 757 mmHg 77%
04:00 +23°C° 0 mm 2 m/S 757 mmHg 78%
05:00 +25°C° 0 mm 1 m/S 757 mmHg 71%
06:00 +26°C° 0 mm 1 m/S 757 mmHg 65%
07:00 +28°C° 0 mm 1 m/S 757 mmHg 59%
08:00 +29°C° 0 mm 2 m/S 757 mmHg 54%
09:00 +30°C° 0 mm 3 m/S 757 mmHg 49%
10:00 +32°C° 0 mm 4 m/S 757 mmHg 45%
11:00 +32°C° 0 mm 4 m/S 757 mmHg 46%
12:00 +32°C° 0 mm 5 m/S 757 mmHg 48%
13:00 +32°C° 0 mm 6 m/S 757 mmHg 50%
14:00 +30°C° 0 mm 6 m/S 757 mmHg 51%
15:00 +30°C° 0 mm 6 m/S 757 mmHg 53%
16:00 +30°C° 0 mm 5 m/S 757 mmHg 55%
17:00 +29°C° 0 mm 5 m/S 757 mmHg 59%
18:00 +28°C° 0 mm 5 m/S 757 mmHg 64%
19:00 +26°C° 0 mm 4 m/S 757 mmHg 69%
20:00 +26°C° 0 mm 4 m/S 757 mmHg 70%
21:00 +25°C° 0 mm 4 m/S 758 mmHg 72%
22:00 +25°C° 0 mm 4 m/S 758 mmHg 74%
23:00 +25°C° 0 mm 4 m/S 758 mmHg 75%

19 Juli, Sonntag

Zeit Temperatur Niederschläge Wind Luftdruck Luftfeuchtigkeit
00:00 +23°C° 0 mm 4 m/S 758 mmHg 76%
01:00 +23°C° 0 mm 4 m/S 758 mmHg 77%
02:00 +24°C° 0 mm 3 m/S 758 mmHg 77%
03:00 +24°C° 0 mm 3 m/S 758 mmHg 77%
04:00 +24°C° 0 mm 2 m/S 758 mmHg 78%
05:00 +25°C° 0 mm 2 m/S 758 mmHg 72%
06:00 +27°C° 0 mm 2 m/S 758 mmHg 66%
07:00 +28°C° 0 mm 1 m/S 758 mmHg 60%
08:00 +29°C° 0 mm 2 m/S 758 mmHg 57%
09:00 +30°C° 0 mm 2 m/S 758 mmHg 54%
10:00 +30°C° 0 mm 3 m/S 758 mmHg 51%
11:00 +30°C° 0 mm 3 m/S 758 mmHg 51%
12:00 +30°C° 0 mm 4 m/S 758 mmHg 52%
13:00 +30°C° 0 mm 4 m/S 758 mmHg 53%
14:00 +30°C° 0 mm 4 m/S 757 mmHg 53%
15:00 +30°C° 0 mm 5 m/S 757 mmHg 53%
16:00 +30°C° 0 mm 5 m/S 757 mmHg 53%
17:00 +29°C° 0 mm 5 m/S 757 mmHg 59%
18:00 +28°C° 0 mm 4 m/S 758 mmHg 64%
19:00 +26°C° 0 mm 4 m/S 758 mmHg 70%
20:00 +26°C° 0 mm 4 m/S 758 mmHg 71%
21:00 +26°C° 0 mm 4 m/S 758 mmHg 72%
22:00 +25°C° 0 mm 4 m/S 758 mmHg 73%
23:00 +25°C° 0 mm 3 m/S 758 mmHg 73%
Mehr zeigen